Location: Tamazert
(32.6352°N, 5.2072°W)
Time: 16:06:34
(UTC+00:00)

Cosmos 2297 - Pass Details

Date: 22 May 2022
Orbit: 834 x 859 km, 71.0° (Epoch: 28 June)

Event Time Altitude Azimuth Distance (km) Brightness Sun altitude
Rises 04:06:09 0° 334° (NNW) 3,438 7.0 -13.9°
Reaches altitude 10° 04:08:39 10° 330° (NNW) 2,498 6.2 -13.5°
Maximum altitude 04:14:14 55° 254° (WSW) 1,028 3.8 -12.5°
Drops below altitude 10° 04:19:46 10° 178° (S) 2,476 5.8 -11.5°
Sets 04:22:15 0° 173° (S) 3,406 6.6 -11.1°
